Flag for Norway Weather past 2 weeks in Spydeberg, Norway

Now
39 °F

Passing clouds.


Feels Like: 32 °F
Forecast: 39 / 47 °F
Wind: 13 mph from South

Location: Rygge

Current Time: Mar 6, 2015 at 9:51:22 PM

Latest Report: Mar 6, 2015 at 9:20 PM


Visibility: N/A

Pressure: 30.12 "Hg

Humidity: 93%

Dew point: 37 °F

Location of SpydebergLocation

Historic Weather in Spydeberg — Graph

°F

Spydeberg temperature yesterday

Maximum temperature yesterday: 43 °F (at 11:50 AM)
Minimum temperature yesterday: 23 °F (at 6:50 AM)
Average temperature yesterday: 35 °F

Past Weeks' High & Low Weather Summary

 TemperatureHumidityPressure
High52 °F (Mar 6, 4:20 PM)100% (Feb 21, 9:20 AM)30.30 "Hg (Feb 21, 9:20 AM)
Low23 °F (Mar 5, 6:50 AM)41% (Mar 6, 4:20 PM)29.00 "Hg (Feb 23, 12:50 PM)
Average37 °F87%29.57 "Hg
* Reported Feb 19 8:50 PM — Mar 6 8:50 PM, Spydeberg, Weather by CustomWeather, © 2015

Note: Actual official high and low records may vary slightly from our data, if they occured in-between our weather recording intervals... More about our weather records

Advertising

Spydeberg weather history for previous 24 hours

 ConditionsComfort  
Time TempWeatherWind HumidityBarometerVisibility
8:50 PM
Fri, Mar 6
41 °FClear.9 mph81%30.12 "Hg10 mi
8:20 PM41 °FClear.7 mph76%30.15 "Hg10 mi
7:50 PM41 °FClear.8 mph76%30.15 "Hg10 mi
7:20 PM41 °FClear.6 mph76%30.15 "Hg10 mi
6:50 PM41 °FPassing clouds.6 mph70%30.15 "HgN/A
6:20 PM43 °FClear.8 mph71%30.15 "Hg10 mi
5:50 PM43 °FSunny.6 mph66%30.15 "Hg10 mi
5:20 PM46 °FSunny.6 mph57%30.15 "Hg10 mi
4:50 PM50 °FSunny.6 mph47%30.15 "Hg10 mi
4:20 PM52 °FPassing clouds.3 mph41%30.15 "HgN/A
3:50 PM50 °FPassing clouds.5 mph43%30.15 "HgN/A
3:20 PM50 °FPassing clouds.3 mph43%30.15 "HgN/A
2:50 PM50 °FPassing clouds.8 mph43%30.18 "HgN/A
2:20 PM50 °FPassing clouds.9 mph43%30.18 "HgN/A
1:50 PM50 °FPassing clouds.7 mph43%30.15 "HgN/A
1:20 PM50 °FPassing clouds.9 mph43%30.15 "HgN/A
12:50 PM48 °FSunny.9 mph46%30.15 "Hg10 mi
12:20 PM48 °FSunny.12 mph46%30.15 "Hg10 mi
11:50 AM48 °FPassing clouds.13 mph50%30.15 "HgN/A
11:20 AM48 °FSunny.12 mph50%30.15 "Hg10 mi
10:50 AM48 °FSunny.12 mph54%30.15 "Hg10 mi
10:20 AM46 °FSunny.15 mph62%30.12 "Hg10 mi
9:50 AM45 °FPassing clouds.8 mph71%30.15 "HgN/A
9:20 AM41 °FSunny.7 mph81%30.12 "Hg10 mi
8:50 AM39 °FSunny.8 mph87%30.12 "Hg10 mi
8:20 AM37 °FSunny.9 mph100%30.09 "Hg10 mi
7:50 AM37 °FPassing clouds.9 mph93%30.09 "HgN/A
7:20 AM37 °FSunny.10 mph100%30.09 "Hg10 mi
6:50 AM37 °FClear.7 mph100%30.09 "Hg10 mi
6:14 AM39 °FClear.7 mph93%30.09 "Hg10 mi
5:50 AM39 °FOvercast.7 mph93%30.09 "HgN/A
5:20 AM39 °FOvercast.9 mph93%30.09 "HgN/A
4:50 AM39 °FLow clouds.7 mph93%30.07 "HgN/A
4:20 AM39 °FLow clouds.8 mph100%30.07 "HgN/A
3:50 AM39 °FMostly cloudy.9 mph100%30.07 "Hg5 mi
3:20 AM39 °FLow clouds.7 mph100%30.09 "Hg4 mi
2:50 AM39 °FMostly cloudy.12 mph100%30.09 "Hg4 mi
2:20 AM39 °FLow clouds.9 mph100%30.09 "Hg4 mi
1:50 AM39 °FLow clouds.12 mph100%30.09 "Hg3 mi
1:20 AM39 °FLow clouds.10 mph100%30.09 "Hg3 mi
12:50 AM39 °FLow clouds.10 mph100%30.09 "Hg4 mi
12:20 AM39 °FLow clouds.15 mph100%30.09 "Hg5 mi
11:50 PM
Thu, Mar 5
39 °FLow clouds.9 mph100%30.12 "Hg5 mi
11:20 PM39 °FLow clouds.10 mph100%30.12 "Hg4 mi
10:50 PM39 °FFog.13 mph100%30.15 "Hg2 mi
10:20 PM39 °FFog.14 mph100%30.15 "Hg2 mi
9:50 PM39 °FFog.16 mph100%30.15 "Hg2 mi
9:20 PM39 °FLow clouds.16 mph93%30.15 "Hg3 mi
Weather by CustomWeather, © 2015

See weather overviewHow to use our weather pages